Weather in Uman

Ukraine / Cherkassi District     48°45′02″N   30°13′10″E
temp.,
°C
wind,
m/s
gust,
m/s
humid.,
%
clouds,
%
prec.,
mm/h
press.,
hPa
HPBL,
m
22 april, thu
thu2200:00+9ssw376997 0.0 1016158
03:00+7sw37785 0.0 1017125
06:00+6sw35785 0.0 101863
09:00+11ssw46655 0.0 1018329
12:00+15ssw67475 0.0 10181754
15:00+15ssw5752100 0.0 10171218
18:00+14s4958100 0.0 1016393
21:00+11s614705 0.0 1016407
23 april, fri
fri2300:00+10ssw4108199 0.1 1016317
03:00+9s3492100 1.4 1015108
06:00+7nw349690 0.4 101696
09:00+8nnw5684100 0.5 1017556
12:00+4nnw5791100 1.1 1019403
15:00+8nw3569100 1.3 10181020
18:00+9wnw246035 0.1 10181172
21:00+6w33716 0.1 101939
24 april, sat
sat2400:00+4wnw49835 0.0 1019216
03:00+3w49850 0.0 1019215
06:00+2w4108378 0.0 1019205
09:00+5wnw8107475 0.0 10201011
12:00+7wnw71047100 0.1 10212182
15:00+9wnw81136100 0.1 10212755
18:00+8nw594255 0.0 10212586
21:00+4wnw37615 0.0 1023155
25 april, sun
sun2500:00+3w34700 0.0 102362
03:00+2wsw357544 0.0 102396
06:00+1sw3474100 0.0 102247
09:00+7ssw475794 0.0 1021460
12:00+11ssw684798 0.0 10191824
15:00+10sw6966100 0.4 10181284
18:00+6nne469154 1.7 1018318
21:00+5ene1292100 1.8 101919
26 april, mon
mon2600:00+4n2293100 0.0 101918
03:00+4n2285100 0.1 101884
06:00+2nw34806 0.0 101883
09:00+6wnw46639 0.0 1018715
12:00+9w694299 0.1 10182353
15:00+10w81137100 0.1 10162721
18:00+9nw694787 0.0 10162080
21:00+5wnw345997 0.0 101880